Location: Champs
(48.8539°N, 2.6040°E)
Time: 17:36:13
(UTC+00:00)

Cosmos 2056 Rocket - Pass Details

Date: 29 May 2022
Orbit: 741 x 801 km, 74.0° (Epoch: 01 July)

Event Time Altitude Azimuth Distance (km) Brightness Sun altitude
Exits shadow 01:47:41 - 154° (SSE) 2,756 6.0 -14.6°
Reaches altitude 10° 01:49:13 10° 144° (SE) 2,285 5.7 -14.5°
Maximum altitude 01:53:01 21° 97° (E) 1,676 5.5 -14.1°
Drops below altitude 10° 01:56:52 10° 50° (NE) 2,328 7.2 -13.8°
Sets 01:59:47 0° 35° (NE) 3,272 8.8 -13.6°
